Location: Lafig�re
(44.4503°N, 4.0357°E)
Time: 17:04:28
(UTC+00:00)

S-56A Canister/Altair - Pass Details

Date: 26 January 2021
Orbit: 631 x 2501 km, 38.9° (Epoch: 04 March)

Event Time Altitude Azimuth Distance (km) Brightness Sun altitude
Rises 23:22:08 0° 200° (SSW) 3,667 - -63.0°
Reaches altitude 10° 23:27:24 10° 163° (SSE) 2,337 - -63.3°
Maximum altitude 23:28:30 11° 151° (SSE) 2,229 - -63.4°
Drops below altitude 10° 23:29:33 10° 139° (SE) 2,213 - -63.4°
Sets 23:33:51 0° 99° (E) 2,958 - -63.6°
